Weather History for Enid, OK

Change the Weather History Date:

Monday, May 27, 2013

  Actual Average Record
Temperature  
Mean Temperature 78 °F -  
Max Temperature 84 °F 81 °F 93 °F (2006)
Min Temperature 71 °F 60 °F 55 °F (2003)
Cooling Degree Days 12    
Growing Degree Days 28 (Base 50)    
Moisture  
Dew Point 69 °F    
Average Humidity 83    
Maximum Humidity 94    
Minimum Humidity 62    
Precipitation  
Precipitation 0.00 in - - ()
Sea Level Pressure  
Sea Level Pressure 29.76 in    
Wind  
Wind Speed 16 mph (South)    
Max Wind Speed 28 mph    
Max Gust Speed 37 mph    
Visibility 10 miles    
Events      
Averages and records for this station are not official NWS values.
T = Trace of Precipitation, MM = Missing Value Source: NWS Daily Summary

Daily Weather History Graph

Daily Weather History Graph

Search for Another Location

Airport:

Trip Planner

Search our weather history database for the weather conditions in past years. The results will help you decide how hot, cold, wet, or windy it might be!

Date:

Astronomy

May. 27, 2013 Rise Set
Actual Time 6:16 AM CDT 8:40 PM CDT
Civil Twilight 5:47 AM CDT 9:10 PM CDT
Nautical Twilight 5:10 AM CDT 9:46 PM CDT
Astronomical Twilight 4:30 AM CDT 10:26 PM CDT
Moon 11:22 PM CDT 8:54 AM CDT
Length of Visible Light 15h 22m
Length of Day
14h 23m
Waning Gibbous, 91% of the Moon is Illuminated
May 27
Waning Gibbous
May 31
Last Quarter
Jun 8
New
Jun 16
First Quarter
Jun 23
Full

Hourly Weather History & Observations

Time (CDT) Temp. Heat Index Dew Point Humidity Pressure Visibility Wind Dir Wind Speed Gust Speed Precip Events Conditions
12:15 AM 71.6 °F - 69.8 °F 94% 29.86 in 10.0 mi SSE 15.0 mph 21.9 mph N/A   Clear
12:35 AM 71.6 °F - 69.8 °F 94% 29.86 in 10.0 mi SSE 15.0 mph - N/A   Clear
12:55 AM 71.6 °F - 69.8 °F 94% 29.84 in 10.0 mi SSE 15.0 mph - N/A   Clear
1:15 AM 71.6 °F - 69.8 °F 94% 29.84 in 10.0 mi South 15.0 mph 20.7 mph N/A   Clear
1:35 AM 71.6 °F - 69.8 °F 94% 29.83 in 10.0 mi South 12.7 mph 18.4 mph N/A   Clear
1:55 AM 71.6 °F - 69.8 °F 94% 29.82 in 10.0 mi South 15.0 mph 21.9 mph N/A   Clear
2:15 AM 71.6 °F - 69.8 °F 94% 29.82 in 10.0 mi South 19.6 mph 25.3 mph N/A   Clear
2:35 AM 71.6 °F - 69.8 °F 94% 29.81 in 10.0 mi South 16.1 mph 24.2 mph N/A   Clear
2:55 AM 71.6 °F - 69.8 °F 94% 29.80 in 10.0 mi South 16.1 mph 20.7 mph N/A   Clear
3:15 AM 71.6 °F - 69.8 °F 94% 29.80 in 10.0 mi South 15.0 mph 19.6 mph N/A   Clear
3:35 AM 71.6 °F - 69.8 °F 94% 29.80 in 10.0 mi South 13.8 mph 18.4 mph N/A   Clear
3:55 AM 71.6 °F - 69.8 °F 94% 29.79 in 10.0 mi South 12.7 mph 20.7 mph N/A   Clear
4:15 AM 71.6 °F - 69.8 °F 94% 29.79 in 10.0 mi South 15.0 mph - N/A   Clear
4:35 AM 71.6 °F - 69.8 °F 94% 29.79 in 10.0 mi South 12.7 mph 21.9 mph N/A   Clear
4:55 AM 71.6 °F - 69.8 °F 94% 29.81 in 10.0 mi South 12.7 mph 17.3 mph N/A   Clear
5:15 AM 71.6 °F - 69.8 °F 94% 29.82 in 10.0 mi South 9.2 mph - N/A   Clear
5:35 AM 71.6 °F - 69.8 °F 94% 29.83 in 10.0 mi South 9.2 mph - N/A   Scattered Clouds
5:55 AM 71.6 °F - 69.8 °F 94% 29.81 in 10.0 mi South 16.1 mph - N/A   Scattered Clouds
6:17 AM 71.6 °F - 69.8 °F 94% 29.81 in 7.0 mi South 13.8 mph 21.9 mph N/A   Mostly Cloudy
6:50 AM 71.6 °F - 69.8 °F 94% 29.79 in 10.0 mi SSE 11.5 mph - N/A   Mostly Cloudy
7:50 AM 71.6 °F - 69.8 °F 94% 29.79 in 10.0 mi South 11.5 mph 23.0 mph N/A   Mostly Cloudy
8:50 AM 75.2 °F - 69.8 °F 83% 29.79 in 10.0 mi South 23.0 mph 31.1 mph N/A   Mostly Cloudy
9:50 AM 75.2 °F - 69.8 °F 83% 29.78 in 10.0 mi South 23.0 mph 33.4 mph N/A   Mostly Cloudy
10:50 AM 78.8 °F - 69.8 °F 74% 29.77 in 10.0 mi South 25.3 mph 32.2 mph N/A   Mostly Cloudy
11:50 AM 80.6 °F 83.9 °F 69.8 °F 70% 29.77 in 10.0 mi South 23.0 mph 34.5 mph N/A   Mostly Cloudy
12:50 PM 80.6 °F 83.2 °F 68.0 °F 65% 29.77 in 10.0 mi South 25.3 mph 34.5 mph N/A   Mostly Cloudy
1:50 PM 82.4 °F 85.4 °F 68.0 °F 62% 29.75 in 10.0 mi South 27.6 mph 36.8 mph N/A   Mostly Cloudy
2:50 PM 84.2 °F 88.4 °F 69.8 °F 62% 29.73 in 10.0 mi South 23.0 mph 34.5 mph N/A   Mostly Cloudy
3:50 PM 84.2 °F 88.4 °F 69.8 °F 62% 29.71 in 10.0 mi South 23.0 mph 36.8 mph N/A   Mostly Cloudy
4:50 PM 82.4 °F 86.3 °F 69.8 °F 66% 29.69 in 10.0 mi South 23.0 mph 34.5 mph N/A   Mostly Cloudy
5:50 PM 80.6 °F 83.9 °F 69.8 °F 70% 29.68 in 10.0 mi South 23.0 mph 32.2 mph N/A   Mostly Cloudy
6:50 PM 80.6 °F 83.2 °F 68.0 °F 65% 29.65 in 10.0 mi SSE 23.0 mph 36.8 mph N/A   Mostly Cloudy
9:15 PM 77.0 °F - 68.0 °F 74% 29.66 in 10.0 mi South 23.0 mph 31.1 mph N/A   Clear
9:35 PM 77.0 °F - 68.0 °F 74% 29.67 in 10.0 mi South 20.7 mph 28.8 mph N/A   Clear
9:55 PM 77.0 °F - 68.0 °F 74% 29.65 in 10.0 mi South 18.4 mph 25.3 mph N/A   Clear
10:15 PM 77.0 °F - 68.0 °F 74% 29.64 in 10.0 mi South 17.3 mph 28.8 mph N/A   Clear
10:35 PM 77.0 °F - 68.0 °F 74% 29.64 in 10.0 mi South 17.3 mph 26.5 mph N/A   Clear
10:55 PM 75.2 °F - 68.0 °F 78% 29.65 in 10.0 mi South 17.3 mph 21.9 mph N/A   Clear
11:15 PM 75.2 °F - 68.0 °F 78% 29.66 in 10.0 mi SSW 18.4 mph 29.9 mph N/A   Clear
11:35 PM 75.2 °F - 68.0 °F 78% 29.66 in 10.0 mi South 16.1 mph 24.2 mph N/A   Clear
11:55 PM 75.2 °F - 68.0 °F 78% 29.67 in 10.0 mi SSW 11.5 mph 20.7 mph N/A   Clear